KC8MCA Weather Reports


time (UTC)temp
C
wind
direction
speed
KPH
gust
KPH
rain 1hr
cm
rain 24hr
cm
rain mn
cm
humidity
%
barometer
mb
20260510190810 11 304 3.2 6.4 0.00 0.03 0.03 57 1018.4
20260510190331 11 34 1.6 8.0 0.00 0.03 0.03 58 1018.3
20260510185846 11 347 3.2 9.7 0.00 0.03 0.03 60 1018.2
20260510185335 11 61 4.8 9.7 0.00 0.03 0.03 59 1018.1
20260510184814 11 350 3.2 8.0 0.00 0.03 0.03 57 1018.0
20260510184316 11 76 3.2 9.7 0.00 0.03 0.03 60 1018.0
20260510183823 11 33 3.2 9.7 0.00 0.03 0.03 62 1018.0
20260510183325 11 335 1.6 8.0 0.00 0.03 0.03 58 1018.0
20260510182824 11 349 3.2 8.0 0.00 0.03 0.03 61 1017.9
20260510182329 11 360 3.2 8.0 0.00 0.03 0.03 63 1017.8
20260510181828 11 32 4.8 9.7 0.00 0.03 0.03 61 1017.6
20260510181310 11 49 4.8 11.3 0.00 0.03 0.03 62 1017.7
20260510180819 11 13 4.8 11.3 0.00 0.03 0.03 60 1017.6
20260510180312 11 65 4.8 12.9 0.00 0.03 0.03 61 1017.6
20260510175813 11 89 3.2 14.5 0.00 0.03 0.03 64 1017.6
20260510175319 10 100 3.2 14.5 0.00 0.03 0.03 61 1017.5
20260510174821 10 355 4.8 12.9 0.00 0.03 0.03 64 1017.5
20260510174323 10 341 3.2 12.9 0.00 0.03 0.03 66 1017.6
20260510173831 10 48 4.8 12.9 0.00 0.03 0.03 63 1017.5
20260510173333 10 73 3.2 12.9 0.00 0.03 0.03 64 1017.6
20260510172821 10 49 3.2 16.1 0.00 0.03 0.03 63 1017.7
20260510172342 10 65 4.8 12.9 0.00 0.03 0.03 64 1017.8
20260510171830 10 18 3.2 9.7 0.00 0.03 0.03 65 1017.9
20260510171312 10 337 3.2 9.7 0.00 0.03 0.03 65 1017.8
20260510170815 10 338 3.2 12.9 0.00 0.03 0.03 64 1017.7
20260510170317 10 40 4.8 11.3 0.00 0.03 0.03 62 1017.7
20260510165827 10 323 3.2 11.3 0.00 0.03 0.03 63 1017.7
20260510165324 10 11 3.2 11.3 0.00 0.03 0.03 64 1017.6
20260510164812 10 59 3.2 8.0 0.00 0.03 0.03 63 1017.6
20260510164310 10 5 1.6 12.9 0.00 0.03 0.03 63 1017.6
20260510163816 10 344 1.6 12.9 0.00 0.03 0.03 60 1017.6
20260510163318 10 333 3.2 8.0 0.00 0.03 0.03 64 1017.5
20260510162843 10 329 3.2 8.0 0.00 0.03 0.03 65 1017.5
20260510162324 10 355 4.8 9.7 0.00 0.03 0.03 64 1017.4
20260510161832 10 69 4.8 9.7 0.00 0.03 0.03 59 1017.4
20260510161312 10 115 1.6 9.7 0.00 0.03 0.03 65 1017.3
20260510160814 10 79 3.2 11.3 0.00 0.03 0.03 63 1017.2
20260510160321 10 63 6.4 11.3 0.00 0.03 0.03 61 1017.1
20260510155822 10 94 3.2 12.9 0.00 0.03 0.03 62 1017.2
20260510155330 10 40 3.2 14.5 0.00 0.03 0.03 64 1017.1
20260510154815 10 61 3.2 14.5 0.00 0.03 0.03 61 1017.1
20260510154317 10 53 4.8 12.9 0.00 0.03 0.03 60 1017.0
20260510153819 10 67 4.8 14.5 0.00 0.03 0.03 61 1017.0
20260510153328 10 84 6.4 14.5 0.00 0.03 0.03 60 1017.1
20260510152828 11 51 3.2 14.5 0.00 0.03 0.03 64 1017.0
20260510152336 10 309 1.6 14.5 0.00 0.03 0.03 62 1017.0
20260510151838 10 80 3.2 11.3 0.00 0.03 0.03 61 1017.0
20260510151317 10 360 1.6 11.3 0.00 0.03 0.03 62 1016.8
20260510150825 10 67 6.4 14.5 0.00 0.03 0.03 60 1016.7
20260510150325 10 345 3.2 14.5 0.00 0.03 0.03 63 1016.7
20260510145850 10 80 3.2 12.9 0.00 0.03 0.03 63 1016.6
20260510145332 10 348 6.4 12.9 0.00 0.03 0.03 62 1016.6
20260510144814 10 38 4.8 12.9 0.00 0.03 0.03 63 1016.6
20260510144322 10 60 1.6 11.3 0.00 0.03 0.03 63 1016.5
20260510143809 10 49 0.0 11.3 0.00 0.03 0.03 62 1016.5
20260510143312 10 57 4.8 12.9 0.00 0.03 0.03 63 1016.5
20260510142837 10 115 3.2 12.9 0.00 0.03 0.03 63 1016.5
20260510142318 10 5 4.8 9.7 0.00 0.03 0.03 64 1016.5
20260510141848 10 5 3.2 14.5 0.00 0.03 0.03 64 1016.6
20260510141329 10 28 8.0 14.5 0.00 0.03 0.03 62 1016.7
20260510140810 10 92 4.8 11.3 0.00 0.03 0.03 64 1016.6
20260510140319 10 110 3.2 11.3 0.00 0.03 0.03 66 1016.6
20260510135820 10 28 3.2 16.1 0.00 0.03 0.03 65 1016.5
20260510135321 10 71 6.4 16.1 0.00 0.03 0.03 65 1016.5
20260510134828 10 71 4.8 14.5 0.00 0.03 0.03 65 1016.5
20260510134312 10 51 6.4 9.7 0.00 0.03 0.03 64 1016.4
20260510133815 10 44 3.2 14.5 0.00 0.03 0.03 66 1016.4
20260510133325 10 63 4.8 14.5 0.00 0.03 0.03 66 1016.4
20260510132823 10 71 3.2 11.3 0.00 0.03 0.03 66 1016.2
20260510132325 10 82 8.0 11.3 0.00 0.03 0.03 64 1016.1
20260510131832 10 69 6.4 14.5 0.00 0.03 0.03 65 1016.1
20260510131312 10 67 4.8 14.5 0.00 0.03 0.03 65 1016.0
20260510130814 10 80 4.8 14.5 0.00 0.03 0.03 67 1015.9
20260510130312 10 55 3.2 9.7 0.00 0.03 0.03 67 1015.8
20260510125820 10 96 3.2 12.9 0.00 0.03 0.03 69 1015.5
20260510125323 10 44 1.6 12.9 0.00 0.03 0.03 68 1015.5
20260510124852 10 47 3.2 8.0 0.00 0.03 0.03 68 1015.5
20260510124332 10 36 1.6 9.7 0.00 0.03 0.03 70 1015.4
20260510123819 10 61 3.2 12.9 0.00 0.03 0.03 69 1015.4
20260510123320 10 76 3.2 8.0 0.00 0.03 0.03 69 1015.4
20260510122819 10 355 3.2 8.0 0.00 0.03 0.03 70 1015.3
20260510122345 9 59 3.2 8.0 0.00 0.03 0.03 70 1015.1
20260510121810 9 67 1.6 12.9 0.00 0.03 0.03 72 1015.3
20260510121311 9 80 4.8 12.9 0.00 0.03 0.03 71 1015.1
20260510120818 9 36 3.2 12.9 0.00 0.03 0.03 71 1015.1
20260510120336 10 65 4.8 12.9 0.00 0.03 0.03 72 1015.1
20260510115821 10 36 1.6 6.4 0.00 0.03 0.03 74 1014.8
20260510115319 9 76 3.2 8.0 0.00 0.03 0.03 74 1014.6
20260510114818 9 71 3.2 8.0 0.00 0.03 0.03 74 1014.4
20260510114310 9 49 3.2 8.0 0.00 0.03 0.03 75 1014.4
20260510113811 9 334 1.6 14.5 0.00 0.03 0.03 75 1014.3
20260510113312 9 19 4.8 14.5 0.00 0.03 0.03 74 1014.3
20260510112818 9 63 3.2 8.0 0.00 0.03 0.03 75 1014.1
20260510112319 9 47 1.6 8.0 0.00 0.03 0.03 76 1013.9
20260510111843 8 306 1.6 17.7 0.00 0.03 0.03 76 1013.7
20260510111324 8 53 4.8 17.7 0.00 0.03 0.03 76 1013.7
20260510110810 8 57 1.6 12.9 0.00 0.03 0.03 76 1013.4
20260510110336 8 5 3.2 14.5 0.00 0.03 0.03 75 1013.5
20260510105816 8 40 3.2 14.5 0.00 0.03 0.03 76 1013.4
20260510105317 8 51 1.6 8.0 0.00 0.03 0.03 77 1013.4
20260510104843 8 75 3.2 9.7 0.00 0.03 0.03 77 1013.0
20260510104328 8 61 3.2 14.5 0.00 0.03 0.03 77 1012.8
20260510103809 8 40 1.6 16.1 0.00 0.03 0.03 76 1012.8
20260510103310 8 36 4.8 16.1 0.00 0.03 0.03 76 1012.7
20260510102837 8 36 4.8 14.5 0.00 0.03 0.03 76 1012.7
20260510102317 8 54 3.2 11.3 0.00 0.03 0.03 77 1012.6
20260510101846 8 71 3.2 20.9 0.00 0.03 0.03 76 1012.5
20260510101325 8 53 8.0 20.9 0.00 0.03 0.03 75 1012.6
20260510100825 8 43 4.8 12.9 0.00 0.03 0.03 75 1012.3
20260510100332 8 94 3.2 14.5 0.00 0.03 0.03 75 1012.4
20260510095813 8 59 3.2 14.5 0.00 0.03 0.03 74 1012.3
20260510095342 8 70 4.8 14.5 0.00 0.03 0.03 74 1012.2
20260510094823 8 99 4.8 14.5 0.00 0.03 0.03 75 1012.3
20260510094352 8 81 1.6 12.9 0.00 0.03 0.03 76 1012.2
20260510093810 8 38 3.2 14.5 0.00 0.03 0.03 75 1012.1
20260510093313 8 77 4.8 19.3 0.00 0.03 0.03 75 1012.1
20260510092814 8 92 8.0 19.3 0.00 0.03 0.03 77 1012.0
20260510092319 9 49 1.6 9.7 0.00 0.03 0.03 79 1011.8
20260510091815 9 65 1.6 12.9 0.00 0.03 0.03 80 1011.6
20260510091311 9 76 3.2 12.9 0.00 0.03 0.03 79 1011.4
20260510090817 9 92 3.2 8.0 0.00 0.03 0.03 79 1011.4
20260510090317 9 95 1.6 8.0 0.00 0.03 0.03 80 1011.2
20260510085820 10 41 3.2 8.0 0.00 0.03 0.03 79 1011.2
20260510085320 10 64 1.6 9.7 0.00 0.03 0.03 78 1011.1
20260510084821 10 88 1.6 11.3 0.00 0.03 0.03 78 1011.2
20260510084328 10 342 3.2 11.3 0.00 0.03 0.03 77 1011.1
20260510083827 10 65 1.6 9.7 0.00 0.03 0.03 76 1010.9
20260510083327 10 78 1.6 14.5 0.00 0.03 0.03 75 1010.7
20260510082834 10 86 3.2 14.5 0.00 0.03 0.03 75 1010.5
20260510082316 10 70 1.6 8.0 0.00 0.03 0.03 76 1010.5
20260510081818 10 64 1.6 8.0 0.00 0.03 0.03 76 1010.6
20260510081321 10 62 1.6 8.0 0.00 0.03 0.03 76 1010.6
20260510080830 10 84 0.0 6.4 0.00 0.03 0.03 76 1010.6
20260510080310 10 87 1.6 6.4 0.00 0.03 0.03 77 1010.5
20260510075830 10 73 1.6 6.4 0.00 0.03 0.03 78 1010.3
20260510075310 10 77 0.0 6.4 0.00 0.03 0.03 78 1010.2
20260510074811 10 85 1.6 9.7 0.00 0.03 0.03 78 1010.2
20260510074310 10 86 1.6 9.7 0.00 0.03 0.03 78 1010.0
20260510073839 10 74 1.6 4.8 0.00 0.03 0.03 78 1010.0
20260510073319 10 71 1.6 4.8 0.00 0.03 0.03 78 1009.8
20260510072821 10 69 0.0 3.2 0.00 0.03 0.03 78 1009.7
20260510072321 10 69 0.0 3.2 0.00 0.03 0.03 77 1009.6
20260510071822 10 69 0.0 4.8 0.00 0.03 0.03 77 1009.5
20260510071329 10 69 0.0 4.8 0.00 0.03 0.03 76 1009.5
20260510070811 10 58 1.6 6.4 0.00 0.03 0.03 76 1009.5
20260510070312 10 45 3.2 6.4 0.00 0.03 0.03 76 1009.5
20260510065820 10 72 3.2 6.4 0.00 0.03 0.03 76 1009.5
20260510065320 10 105 1.6 12.9 0.00 0.03 0.03 76 1009.5
20260510064823 10 111 4.8 12.9 0.00 0.03 0.03 76 1009.4
20260510064330 10 62 3.2 12.9 0.00 0.03 0.03 76 1009.4
20260510063817 10 69 3.2 8.0 0.00 0.03 0.03 76 1009.4
20260510063319 10 61 3.2 9.7 0.00 0.03 0.03 76 1009.5
20260510062814 10 69 3.2 8.0 0.00 0.03 0.03 76 1009.3
20260510062321 10 75 3.2 11.3 0.00 0.03 0.03 75 1009.4
20260510061821 11 103 3.2 12.9 0.00 0.03 0.03 75 1009.2
20260510061327 11 57 8.0 12.9 0.00 0.03 0.03 76 1009.1
20260510060809 11 89 4.8 16.1 0.00 0.03 0.03 75 1009.0
20260510060310 11 63 8.0 17.7 0.00 0.03 0.03 75 1009.0
20260510055810 11 51 6.4 17.7 0.00 0.03 0.03 76 1008.8
20260510055318 11 105 6.4 22.5 0.00 0.03 0.03 76 1008.7
20260510054818 11 83 9.7 22.5 0.00 0.03 0.03 76 1008.8
20260510054319 11 83 8.0 14.5 0.00 0.03 0.03 77 1008.8
20260510053826 11 86 3.2 20.9 0.00 0.03 0.03 77 1008.8
20260510053327 11 82 8.0 20.9 0.00 0.03 0.03 78 1008.8
20260510052853 11 32 6.4 20.9 0.00 0.03 0.03 79 1008.7
20260510052311 11 46 8.0 19.3 0.00 0.03 0.03 79 1008.4
20260510051810 11 23 4.8 20.9 0.00 0.03 0.03 79 1008.2
20260510051314 11 342 4.8 20.9 0.03 0.03 0.03 81 1008.0
20260510050812 12 329 6.4 17.7 0.03 0.03 0.03 81 1007.8
20260510050338 13 330 8.0 12.9 0.03 0.03 0.03 86 1007.6
20260510045856 13 312 4.8 6.4 0.03 0.03 0.03 85 1007.1
20260510045337 13 320 3.2 12.9 0.03 0.03 0.03 84 1006.9
20260510044835 13 338 6.4 12.9 0.03 0.03 0.03 83 1006.8
20260510044340 14 321 6.4 14.5 0.03 0.03 0.03 82 1007.3
20260510043900 15 299 6.4 12.9 0.03 0.03 0.03 80 1007.2
20260510043344 15 284 4.8 14.5 0.03 0.03 0.03 79 1006.8
20260510042821 15 304 6.4 14.5 0.03 0.03 0.03 78 1006.4
20260510042346 15 290 4.8 14.5 0.03 0.03 0.03 78 1006.3
20260510041827 15 317 3.2 14.5 0.03 0.03 0.03 79 1006.2
20260510041347 14 215 1.6 6.4 0.00 0.00 0.00 78 1005.9
20260510040854 14 210 3.2 6.4 0.00 0.00 0.00 79 1005.7
20260510040334 14 209 4.8 6.4 0.00 0.00 0.00 80 1005.8
20260510035842 14 205 4.8 6.4 0.00 0.00 0.00 80 1005.7
20260510035345 14 194 3.2 6.4 0.00 0.00 0.00 80 1005.7
20260510034827 14 190 3.2 6.4 0.00 0.00 0.00 80 1005.6
20260510034357 14 180 1.6 4.8 0.00 0.00 0.00 80 1005.5
20260510033844 14 182 1.6 6.4 0.00 0.00 0.00 80 1005.4
20260510033327 14 172 3.2 6.4 0.00 0.00 0.00 79 1005.4
20260510032829 14 184 3.2 8.0 0.00 0.00 0.00 79 1005.5
20260510032331 14 175 3.2 6.4 0.00 0.00 0.00 79 1005.5
20260510031840 14 180 3.2 11.3 0.00 0.00 0.00 79 1005.5
20260510031344 14 195 4.8 11.3 0.00 0.00 0.00 80 1005.5
20260510030826 14 202 4.8 12.9 0.00 0.00 0.00 80 1005.5
20260510030335 13 204 6.4 9.7 0.00 0.00 0.00 81 1005.6
20260510025838 13 193 4.8 11.3 0.00 0.00 0.00 82 1005.7
20260510025320 13 198 4.8 11.3 0.00 0.00 0.00 82 1005.5
20260510024823 13 184 4.8 6.4 0.00 0.00 0.00 82 1005.5
20260510024331 13 181 3.2 6.4 0.00 0.00 0.00 82 1005.4
20260510023901 13 182 3.2 6.4 0.00 0.00 0.00 82 1005.3
20260510023343 13 175 3.2 8.0 0.00 0.00 0.00 82 1005.3
20260510022825 13 177 3.2 8.0 0.00 0.00 0.00 82 1005.4
20260510022334 13 194 3.2 8.0 0.00 0.00 0.00 82 1005.4
20260510021837 13 219 4.8 9.7 0.00 0.00 0.00 82 1005.6
20260510021319 13 200 3.2 9.7 0.00 0.00 0.00 82 1005.7
20260510020822 13 208 6.4 8.0 0.00 0.00 0.00 82 1005.7
20260510020351 13 179 1.6 4.8 0.00 0.00 0.00 81 1005.5
20260510015833 13 180 1.6 3.2 0.00 0.00 0.00 81 1005.2
20260510015343 14 180 0.0 6.4 0.00 0.00 0.00 80 1005.1
20260510014852 14 181 1.6 6.4 0.00 0.00 0.00 79 1005.1
20260510014334 14 175 3.2 4.8 0.00 0.00 0.00 79 1005.0
20260510013836 14 169 3.2 4.8 0.00 0.00 0.00 78 1005.0
20260510013343 15 171 1.6 6.4 0.00 0.00 0.00 78 1004.9
20260510012847 15 192 3.2 6.4 0.00 0.00 0.00 77 1004.9
20260510012328 15 196 3.2 8.0 0.00 0.00 0.00 77 1004.8
20260510011837 15 207 4.8 8.0 0.00 0.00 0.00 77 1004.8
20260510011339 15 207 3.2 8.0 0.00 0.00 0.00 77 1004.8
20260510010821 15 212 4.8 8.0 0.00 0.00 0.00 77 1004.7
20260510010324 15 211 4.8 8.0 0.00 0.00 0.00 77 1004.7
20260510005833 15 212 4.8 8.0 0.00 0.00 0.00 77 1004.8
20260510005336 15 223 4.8 14.5 0.00 0.00 0.00 77 1004.7
20260510004845 15 219 4.8 16.1 0.00 0.00 0.00 77 1004.5
20260510004349 15 230 6.4 16.1 0.00 0.00 0.00 77 1004.6
20260510003830 15 207 4.8 9.7 0.00 0.00 0.00 79 1004.6
20260510003339 15 232 3.2 8.0 0.00 0.00 0.00 80 1004.8
20260510002843 15 214 4.8 11.3 0.00 0.00 0.00 80 1004.6
20260510002325 15 206 3.2 11.3 0.00 0.00 0.00 81 1004.6
20260510001834 14 221 3.2 11.3 0.00 0.00 0.00 81 1004.7
20260510001337 14 205 4.8 11.3 0.00 0.00 0.00 82 1004.6
20260510000819 14 214 4.8 12.9 0.00 0.00 0.00 82 1004.7
20260510000322 14 229 6.4 12.9 0.00 0.00 0.00 83 1004.7
20260509235830 14 237 4.8 14.5 0.00 0.00 0.00 83 1004.7
20260509235333 14 230 8.0 14.5 0.00 0.00 0.00 84 1004.6
20260509234842 14 192 6.4 11.3 0.00 0.00 0.00 85 1004.6
20260509234346 14 234 6.4 11.3 0.00 0.00 0.00 87 1004.4
20260509233828 13 205 4.8 11.3 0.00 0.00 0.00 88 1004.4
20260509233355 13 235 6.4 11.3 0.00 0.00 0.00 90 1004.4
20260509232904 13 211 4.8 11.3 0.00 0.00 0.00 90 1004.4
20260509232325 13 239 1.6 11.3 0.00 0.00 0.00 90 1004.4
20260509231828 13 213 4.8 11.3 0.00 0.00 0.00 90 1004.3
20260509231330 13 249 4.8 9.7 0.00 0.00 0.00 90 1004.4
20260509230839 13 240 3.2 12.9 0.00 0.00 0.00 90 1004.3
20260509230321 13 239 6.4 11.3 0.00 0.00 0.00 90 1004.4
20260509225850 13 231 4.8 9.7 0.00 0.00 0.00 90 1004.5
20260509225332 13 244 4.8 14.5 0.00 0.00 0.00 90 1004.4
20260509224835 13 227 4.8 14.5 0.00 0.00 0.00 90 1004.4
20260509224344 13 217 4.8 9.7 0.00 0.00 0.00 89 1004.3
20260509223827 13 303 3.2 12.9 0.00 0.00 0.00 90 1004.4
20260509223330 13 282 8.0 19.3 0.00 0.00 0.00 89 1004.5
20260509222833 13 287 6.4 20.9 0.00 0.00 0.00 86 1004.8
20260509222341 13 313 9.7 35.4 0.00 0.00 0.00 82 1004.7
20260509221845 15 309 12.9 35.4 0.00 0.00 0.00 74 1003.9
20260509221324 18 338 14.5 32.2 0.00 0.00 0.00 62 1003.3
20260509220853 20 267 14.5 24.1 0.00 0.00 0.00 57 1002.5
20260509220341 20 200 9.7 20.9 0.00 0.00 0.00 55 1001.7
20260509215824 20 206 8.0 19.3 0.00 0.00 0.00 55 1001.8
20260509215347 20 204 9.7 24.1 0.00 0.00 0.00 55 1001.8
20260509214834 21 192 9.7 24.1 0.00 0.00 0.00 55 1001.8
20260509214336 21 200 11.3 22.5 0.00 0.00 0.00 54 1001.7
20260509213819 21 192 12.9 22.5 0.00 0.00 0.00 53 1001.8
20260509213349 21 192 11.3 20.9 0.00 0.00 0.00 53 1001.7
20260509212831 21 241 9.7 27.4 0.00 0.00 0.00 53 1001.6
20260509212340 21 251 12.9 27.4 0.00 0.00 0.00 52 1001.6
20260509211821 21 257 11.3 25.7 0.00 0.00 0.00 53 1001.6
20260509211323 21 209 11.3 25.7 0.00 0.00 0.00 53 1001.6
20260509210826 21 236 6.4 22.5 0.00 0.00 0.00 54 1001.5
20260509210334 21 253 11.3 22.5 0.00 0.00 0.00 54 1001.5
20260509205833 21 213 9.7 27.4 0.00 0.00 0.00 54 1001.6
20260509205331 21 223 11.3 22.5 0.00 0.00 0.00 53 1001.8
20260509204858 21 222 12.9 25.7 0.00 0.00 0.00 55 1001.9
20260509204344 21 217 11.3 27.4 0.00 0.00 0.00 57 1001.9
20260509203824 21 191 9.7 27.4 0.00 0.00 0.00 54 1002.0
20260509203324 21 231 9.7 27.4 0.00 0.00 0.00 57 1002.1
20260509202824 21 268 16.1 30.6 0.00 0.00 0.00 55 1002.2
20260509202331 21 215 14.5 30.6 0.00 0.00 0.00 56 1002.2
20260509201831 21 177 14.5 27.4 0.00 0.00 0.00 58 1002.3
20260509201331 20 219 16.1 27.4 0.00 0.00 0.00 57 1002.4
20260509200900 20 209 14.5 22.5 0.00 0.00 0.00 57 1002.6
20260509200320 20 163 11.3 20.9 0.00 0.00 0.00 58 1002.7
20260509195823 20 198 9.7 19.3 0.00 0.00 0.00 57 1002.7
20260509195351 20 247 12.9 29.0 0.00 0.00 0.00 59 1002.8
20260509194836 20 213 14.5 29.0 0.00 0.00 0.00 56 1002.8
20260509194338 20 200 12.9 22.5 0.00 0.00 0.00 56 1002.7
20260509193904 20 225 11.3 22.5 0.00 0.00 0.00 60 1002.9
20260509193343 20 213 11.3 22.5 0.00 0.00 0.00 58 1003.1
20260509192822 20 219 11.3 19.3 0.00 0.00 0.00 58 1003.3
20260509192329 20 214 11.3 22.5 0.00 0.00 0.00 58 1003.3
20260509191852 20 201 11.3 19.3 0.00 0.00 0.00 59 1003.4
20260509191340 20 192 9.7 25.7 0.00 0.00 0.00 59 1003.4